EHI
0 0 0 0 0 0 0 0 0 0 0 0 0 0 0 0 0 0 0 0 0 0 0 0 0 0 0 1 2 1 0 0 0 0 0 0 0 1 2 2 1 0 0 1 2 1 1 2 3
0 0 0 0 0 0 0 0 0 0 0 0 0 0 0 0 0 0 0 0 0 0 0 0 0 0 0 1 1 1 0 0 0 0 0 0 0 1 1 2 2 1 1 1 2 1 1 1 1
0 0 0 0 0 0 0 0 0 0 0 0 0 0 0 0 0 0 0 0 0 0 0 0 0 0 0 0 0 0 0 0 0 0 0 0 0 1 1 1 1 1 1 1 1 0 0 0 0
0 0 0 0 0 0 0 0 0 0 0 0 0 0 0 0 0 0 0 0 0 0 0 0 0 0 0 0 0 1 1 1 1 1 0 0 0 0 0 0 0 0 0 0 0 0 0 0 0
0 0 0 0 0 0 0 0 0 0 0 0 0 0 0 0 0 0 0 0 0 0 0 0 0 0 0 0 1 2 2 2 2 2 1 0 0 0 0 0 0 0 0 0 0 0 0 1 1
0 0 0 0 0 0 0 0 0 0 0 0 0 0 0 0 0 0 0 0 0 0 0 0 0 0 0 0 1 2 3 3 3 2 1 0 0 1 1 0 0 0 0 0 0 0 0 1 2
0 0 0 0 0 0 0 0 0 0 0 0 0 0 0 0 0 0 0 0 0 0 0 0 0 0 0 0 1 2 2 3 3 1 0 0 0 1 1 0 0 0 0 0 0 0 0 1 1
0 0 0 0 0 0 0 0 0 0 0 0 0 0 0 0 0 0 0 0 0 0 0 0 0 0 0 0 0 1 1 1 1 0 0 0 0 1 1 0 0 0 0 0 0 0 0 0 1
0 0 0 0 0 0 0 0 0 0 0 0 0 0 0 0 0 0 0 0 0 0 0 0 0 0 0 0 0 0 0 0 0 0 0 0 0 0 0 0 0 0 0 0 0 0 0 0 1
0 0 0 0 0 0 0 0 0 0 0 0 0 0 0 0 0 0 0 0 0 0 0 0 0 0 0 0 0 0 0 0 0 0 0 0 0 0 0 0 0 0 0 0 0 0 0 0 0
0 0 0 0 0 0 0 0 0 0 0 0 0 0 0 0 0 0 0 0 0 0 0 0 0 0 0 0 0 0 0 0 0 0 0 0 0 0 0 0 0 0 0 0 0 0 0 0 0
0 0 0 0 0 0 0 0 0 0 0 0 0 0 0 0 0 0 0 0 0 0 0 0 0 0 0 0 0 0 0 0 0 0 0 0 0 0 0 0 0 0 0 0 0 0 0 0 0
0 0 0 0 0 0 0 0 0 0 0 0 0 0 0 0 0 0 0 0 0 0 0 0 0 0 0 0 0 0 0 0 0 0 0 0 0 0 0 0 0 0 0 0 0 0 0 0 0
0 0 0 0 0 0 0 0 0 0 0 0 0 0 0 0 0 0 0 0 0 0 0 0 0 0 0 0 0 0 0 0 0 0 0 0 0 0 0 0 0 0 0 0 0 0 0 0 0
0 0 0 0 0 0 0 0 0 0 0 0 0 0 0 0 0 0 0 0 0 0 0 0 0 0 0 0 0 0 0 0 0 0 0 0 0 0 0 0 0 0 0 0 0 0 0 0 0
0 0 0 0 0 0 0 0 0 0 0 0 0 0 0 0 0 0 0 0 0 0 0 0 0 0 0 0 0 0 0 0 0 0 0 0 0 0 0 0 0 0 0 0 0 0 0 0 0
0 0 0 0 0 0 0 0 0 0 0 0 0 0 0 0 0 0 0 0 0 0 0 0 0 0 0 0 0 0 0 0 0 0 0 0 0 0 0 0 0 0 0 0 0 0 0 0 0
0 0 0 0 0 0 0 0 0 0 0 0 0 0 0 0 0 0 0 0 0 0 0 0 0 0 0 0 0 0 0 0 0 0 0 0 0 0 0 0 0 0 0 0 0 0 0 0 0
0 0 0 0 0 0 0 0 0 0 0 0 0 0 0 0 0 0 0 0 0 0 0 0 0 0 0 0 0 0 0 0 0 0 0 0 0 0 0 0 0 0 0 0 0 0 0 0 0
0 0 0 0 0 0 0 0 0 0 0 0 0 0 0 0 0 0 0 0 0 0 0 0 0 0 0 0 0 0 0 0 0 0 0 0 0 0 0 0 0 0 0 0 0 0 0 0 0
0 0 0 0 0 0 0 0 0 0 0 0 0 0 0 0 0 0 0 0 0 0 0 0 0 0 0 0 0 0 0 0 0 0 0 0 0 0 0 0 0 0 0 0 0 0 0 0 0
0 0 0 0 0 0 0 0 0 0 0 0 0 0 0 0 0 0 0 0 0 1 1 1 0 0 0 0 0 0 0 0 0 0 0 0 0 0 0 0 0 0 0 0 0 0 0 0 0
0 0 0 0 0 0 0 0 0 0 0 0 0 0 0 0 0 0 0 0 0 1 2 2 1 0 0 0 0 0 0 0 0 0 0 0 0 0 0 0 0 0 0 0 0 0 0 0 0
0 0 0 0 0 0 0 0 0 0 0 0 0 0 0 0 0 0 0 0 0 1 2 2 2 1 0 0 0 0 0 0 0 0 0 0 0 0 0 0 0 0 0 0 0 0 0 0 0
0 0 0 0 0 0 0 0 0 0 0 0 0 0 0 0 0 0 0 0 0 0 1 1 2 2 1 0 0 0 0 0 0 0 0 0 0 0 0 0 0 0 0 0 0 0 0 0 0
0 0 0 0 0 0 0 0 0 0 0 0 0 0 0 0 0 0 0 0 0 0 0 1 2 2 1 0 0 0 0 0 0 0 0 0 0 0 0 0 0 0 0 0 0 0 0 0 0
0 0 0 0 0 0 0 0 0 0 0 0 0 0 0 0 0 0 0 0 0 0 0 1 1 1 0 0 0 0 0 0 0 0 0 0 0 0 0 0 0 0 0 0 0 0 0 0 0
0 0 0 0 0 0 0 0 0 0 0 0 0 0 0 0 0 0 0 0 0 0 0 0 0 0 0 0 0 0 0 0 0 0 0 0 0 0 0 0 0 0 0 0 0 0 0 0 0
0 0 0 0 0 0 0 0 0 0 0 0 0 0 0 0 0 0 0 0 0 0 0 0 0 0 0 0 0 0 0 0 0 0 0 0 0 0 0 0 0 0 0 0 0 0 0 0 0
0 0 0 0 0 0 0 0 0 0 0 0 0 0 0 0 0 0 0 0 0 0 0 0 0 0 0 0 0 0 0 0 0 0 0 0 0 0 0 0 0 0 0 0 0 0 0 0 0
Wind_Speed
3 2 3 3 4 2 4 5 4 4 5 5 6 5 6 7 6 6 4 4 4 5 5 6 7 6 7 8 9 9 9 9 9 8 9 9 9 9 9 9 9 9 9 10 9 9 9 9 9
1 1 3 4 3 3 5 5 6 6 6 5 5 5 6 7 6 6 4 4 5 6 6 7 8 7 8 9 8 9 9 9 8 8 8 8 8 7 8 9 8 8 9 9 8 8 8 8 8
2 3 3 2 1 3 5 5 7 7 5 3 4 5 5 6 5 5 5 5 6 7 7 9 8 9 10 10 9 9 9 8 8 8 7 7 7 8 8 8 8 8 8 8 8 8 8 8 8
2 3 2 1 7 6 5 5 6 6 5 4 5 7 6 6 4 6 6 6 7 8 8 10 10 10 10 10 10 10 9 8 8 7 7 7 8 7 7 7 7 7 7 7 7 7 8 7 7
2 3 2 4 6 5 5 5 3 4 4 5 5 7 7 6 7 8 7 7 7 8 8 10 10 10 10 10 9 9 9 9 8 8 7 8 8 8 8 7 7 7 7 7 6 7 7 7 7
2 2 2 5 7 6 5 4 4 6 7 6 6 7 7 6 7 7 7 7 7 7 7 9 10 9 10 10 9 9 9 9 9 9 8 8 8 8 7 7 7 7 7 7 6 7 7 7 7
1 0 3 6 6 5 4 3 4 5 6 5 3 6 7 6 6 7 7 7 7 6 6 6 7 8 9 9 9 8 8 9 8 8 8 8 8 7 7 7 7 7 7 7 7 7 7 7 7
1 1 4 4 5 5 5 4 4 3 6 5 2 4 7 8 7 7 7 7 7 6 6 6 6 6 6 8 9 8 8 8 8 8 8 7 7 7 6 6 7 6 6 6 6 6 7 7 7
3 2 4 4 3 5 6 5 4 3 5 4 4 6 8 11 9 8 7 7 6 6 5 5 5 5 5 6 7 6 7 6 5 7 6 3 4 6 5 8 7 6 6 6 6 6 6 6 7
1 2 4 3 2 5 6 4 5 5 6 6 8 9 10 10 8 7 7 7 7 6 6 4 4 4 4 4 4 3 4 4 4 5 4 4 5 5 5 8 7 6 6 6 6 5 5 3 5
2 3 4 4 4 5 6 5 3 4 4 5 8 11 11 10 8 7 6 6 5 5 5 4 3 4 4 3 3 3 3 3 4 4 4 3 4 3 3 3 5 5 4 4 5 4 3 3 4
4 5 3 4 4 4 5 5 4 2 4 5 8 11 11 10 8 6 6 6 5 4 4 3 3 3 4 3 3 2 2 2 3 3 4 3 3 3 3 2 3 3 3 3 3 2 4 4 5
5 5 4 5 5 5 5 4 4 5 5 7 10 10 10 8 7 6 5 5 4 4 3 4 3 3 4 4 2 2 3 2 4 2 2 4 3 3 3 3 3 3 3 3 3 4 6 5 6
5 6 6 5 5 4 5 5 4 6 7 9 10 9 9 8 7 6 5 5 5 4 3 4 3 4 3 3 3 3 3 3 3 3 3 4 3 3 3 4 3 4 3 3 4 5 5 5 5
5 6 5 4 4 4 5 4 4 8 9 9 9 8 7 7 6 5 5 4 4 4 4 4 3 3 4 4 4 3 2 3 3 3 3 4 4 4 3 3 4 4 4 5 4 6 5 5 6
4 5 4 4 3 4 6 3 6 9 10 9 8 8 7 6 6 5 5 4 4 4 5 5 3 3 4 4 3 3 3 3 3 2 2 4 4 4 3 3 4 4 4 4 4 4 4 5 5
5 4 3 4 4 4 5 2 6 9 9 9 9 8 8 8 7 6 5 5 5 5 5 6 5 4 4 4 3 3 3 3 2 3 2 3 4 3 4 3 3 4 3 3 4 4 4 5 5
4 4 3 4 4 5 6 5 5 9 10 9 9 9 9 8 7 6 5 5 5 5 5 6 5 4 4 3 3 3 3 3 3 3 3 3 2 2 3 3 4 4 4 3 4 5 4 4 4
3 4 3 2 2 4 6 6 6 9 11 11 10 10 9 8 7 6 6 6 7 7 6 6 6 6 4 3 2 2 3 2 3 3 4 2 2 2 2 2 3 3 3 4 5 4 6 4 4
6 6 4 2 2 4 5 7 6 8 11 11 11 11 10 9 9 8 8 8 8 8 7 7 6 5 4 2 2 2 2 2 3 2 2 2 2 2 2 3 3 3 3 4 4 3 3 3 2
6 6 4 2 2 5 5 6 7 7 9 10 11 10 10 11 11 10 10 9 9 9 8 6 6 6 5 4 2 3 3 3 3 2 2 2 2 2 2 3 3 3 4 3 3 3 3 2 1
5 3 4 4 5 3 4 4 4 6 8 10 12 11 11 11 11 10 10 10 10 9 8 7 7 6 5 5 4 4 2 2 2 2 3 3 3 3 2 3 2 3 2 3 3 2 2 2 2
1 1 3 5 6 5 6 7 2 5 7 9 11 12 12 12 12 11 11 11 10 9 8 7 7 6 6 5 4 4 3 2 2 2 3 3 3 3 3 3 2 2 2 2 2 2 2 2 1
4 4 3 4 5 7 5 7 3 3 4 4 7 10 11 12 12 11 10 10 9 8 8 7 7 6 6 5 5 4 4 4 4 3 3 3 3 3 3 3 2 2 2 2 2 2 2 1 0
7 6 4 5 5 3 2 6 3 1 1 3 4 7 10 11 12 12 12 11 11 10 9 9 8 8 7 7 6 5 5 4 4 3 4 3 3 3 3 2 2 2 2 2 2 2 1 1 1
8 8 5 3 3 1 4 6 1 1 1 2 3 5 8 11 11 12 12 12 11 11 10 10 9 8 8 7 6 5 5 3 2 3 3 3 2 2 3 3 3 3 3 3 2 1 1 1 2
7 7 5 6 4 5 4 3 2 3 2 1 2 4 7 10 11 12 12 12 12 11 11 10 10 9 8 7 6 6 5 4 4 4 3 2 2 2 3 3 3 3 3 2 3 2 2 2 2
5 5 5 6 5 5 4 4 2 2 1 2 2 4 6 9 11 11 11 11 11 11 10 10 10 9 8 7 6 5 5 5 4 4 4 3 3 3 4 4 4 4 3 3 2 2 2 3 3
7 7 6 6 5 5 3 1 3 1 1 1 2 3 6 8 10 11 11 11 11 10 10 10 10 9 8 8 7 6 6 5 5 4 4 4 4 5 4 4 3 4 4 4 3 2 3 3 4
8 8 8 7 5 6 5 1 4 2 2 2 1 3 5 7 9 10 10 10 11 11 10 10 10 10 9 8 8 7 6 6 6 5 5 5 4 4 4 4 3 3 3 3 3 3 3 3 3
Wind_Direction
201 197 215 230 224 147 79 70 78 91 76 66 63 62 66 48 30 66 69 48 58 69 73 89 84 86 92 98 100 99 101 101 98 96 95 99 102 101 102 101 98 96 95 93 91 88 86 85 82
210 204 231 239 239 120 87 80 83 72 93 103 77 65 72 70 59 81 80 66 68 74 75 78 85 89 93 95 99 101 100 102 105 102 97 95 99 99 97 99 96 94 94 94 93 92 88 86 85
173 244 266 252 63 66 90 94 96 92 93 97 90 61 56 65 70 77 77 86 83 81 78 80 80 87 88 88 91 96 96 99 103 104 102 101 99 99 96 93 93 91 92 94 95 92 87 82 80
215 221 233 109 89 64 78 99 112 119 96 72 98 87 76 55 68 90 99 91 87 85 84 82 78 81 86 90 91 91 91 93 96 99 103 102 98 100 100 97 95 92 93 92 91 92 89 84 81
239 250 166 110 93 87 83 85 103 101 95 91 97 98 90 77 89 103 104 93 88 83 81 86 79 79 80 84 85 86 85 86 89 88 92 96 96 97 96 95 92 91 92 92 91 93 90 85 80
231 236 162 119 107 107 102 102 106 93 100 102 102 105 93 100 108 108 102 94 88 87 86 90 90 81 77 76 78 80 81 81 80 82 82 85 86 88 90 92 94 96 97 93 90 92 87 82 77
284 157 111 120 124 121 101 93 95 104 107 95 100 106 116 120 114 115 106 102 97 94 91 87 93 96 92 80 72 74 75 77 78 80 80 81 79 80 86 89 94 96 92 90 87 86 89 84 75
318 154 133 132 141 119 114 109 92 92 95 99 111 118 130 132 130 125 116 112 107 102 96 90 86 80 86 92 79 72 73 76 78 80 81 88 99 96 97 104 92 93 91 91 92 91 91 84 76
254 193 135 132 139 123 139 136 110 101 115 107 83 83 111 129 140 137 132 125 118 109 99 96 93 85 78 77 87 91 91 86 107 103 100 124 109 103 109 79 86 92 92 92 95 95 98 101 96
253 137 100 96 115 129 144 135 133 147 132 126 118 113 128 140 147 147 140 132 127 118 106 96 90 90 85 79 89 83 85 87 72 73 85 85 78 77 82 97 90 91 94 99 93 107 140 174 121
61 81 101 111 119 134 140 132 142 156 133 134 140 142 145 150 151 146 134 124 114 112 108 106 94 90 91 92 80 74 78 83 81 75 89 92 97 111 107 117 128 124 132 115 123 154 120 107 90
99 83 96 116 129 145 140 133 134 129 95 113 132 142 150 156 153 147 141 135 135 126 116 110 105 103 96 92 87 91 88 82 74 73 77 88 91 88 91 92 87 101 101 97 104 94 100 97 105
115 110 101 116 126 130 130 126 121 116 114 126 135 146 154 156 153 148 145 143 143 137 137 110 89 84 90 87 88 95 86 73 85 71 74 85 97 97 101 95 90 85 89 106 101 105 96 96 90
114 123 125 127 129 145 148 139 152 136 143 144 149 154 159 160 158 157 163 163 154 153 138 128 118 99 98 104 103 84 83 90 77 83 84 87 94 99 100 99 90 84 82 81 97 99 100 92 82
141 142 142 143 152 156 175 172 169 151 161 160 163 160 162 167 169 173 168 173 161 150 144 126 115 106 96 90 84 82 80 82 83 78 83 94 94 97 93 92 99 93 97 99 94 100 98 96 96
177 190 174 149 175 178 223 186 144 163 176 174 174 167 173 178 184 178 175 178 166 162 154 140 143 124 104 103 99 87 79 79 82 79 70 89 95 92 88 91 99 100 101 104 103 101 97 95 93
195 203 186 159 182 193 225 212 151 175 187 185 185 180 183 185 189 183 182 182 172 169 162 152 146 137 119 108 108 93 90 84 80 80 71 79 91 103 102 91 100 108 106 106 109 104 104 103 98
201 208 201 193 172 214 227 230 176 184 200 199 193 193 193 195 189 180 178 173 167 169 169 153 143 150 132 132 128 115 100 90 75 72 76 65 89 97 104 117 118 116 118 113 105 108 103 100 103
234 229 228 200 167 232 243 245 214 191 204 209 204 202 202 198 187 178 176 175 175 175 178 169 166 162 161 157 152 137 122 112 98 75 65 79 100 105 106 129 116 124 125 126 127 120 122 119 119
227 233 230 181 181 245 257 255 234 207 210 214 211 205 203 195 188 181 185 184 183 181 186 180 169 168 171 164 141 134 121 111 91 93 97 91 107 125 133 142 133 133 131 138 132 137 139 132 157
228 241 241 237 195 225 266 247 213 202 212 215 219 215 205 199 195 187 189 187 184 186 190 184 173 174 177 170 157 151 143 154 143 122 88 74 89 115 137 131 137 138 154 147 156 162 161 149 152
229 234 242 231 238 239 253 274 209 196 204 212 214 212 208 201 200 192 189 188 191 188 186 188 179 180 174 176 180 174 170 148 121 112 110 111 102 114 125 131 144 140 140 152 169 161 181 185 170
250 184 226 241 254 260 229 261 224 184 217 211 207 207 206 202 199 195 194 191 190 182 183 187 178 179 175 183 172 189 173 150 139 144 131 128 113 114 124 131 143 142 145 159 158 166 211 207 218
161 171 174 216 242 249 234 250 254 181 224 215 199 201 202 201 198 195 189 187 183 179 179 183 181 179 174 181 181 184 168 168 158 158 142 141 129 119 121 130 147 146 148 153 166 174 185 232 171
205 218 216 212 216 235 161 245 260 58 263 253 222 203 198 197 193 190 183 184 182 182 182 182 184 180 179 183 185 178 177 179 175 164 154 154 140 134 131 139 140 137 140 137 150 167 169 170 168
210 231 249 263 255 207 195 242 207 80 265 258 225 204 192 190 189 188 184 184 184 183 183 185 186 183 183 187 184 180 169 182 171 170 159 154 141 131 133 136 128 127 132 134 139 149 145 143 135
203 221 264 282 279 265 224 228 218 166 184 175 185 187 186 185 184 185 183 183 183 182 182 187 186 184 183 186 183 180 178 177 176 180 168 156 142 135 142 139 136 123 118 118 129 129 126 115 104
249 202 209 237 259 256 241 240 220 164 173 159 170 181 183 181 179 180 180 182 182 181 181 186 188 185 182 183 184 183 181 176 183 179 171 167 151 141 140 149 142 135 131 126 121 120 105 121 103
185 201 221 233 251 272 265 139 65 3 332 254 181 179 177 178 179 179 179 179 178 176 179 183 184 185 183 184 182 182 177 179 179 180 172 176 164 159 153 156 150 143 140 138 131 131 130 127 124
220 217 219 231 228 249 272 238 95 354 332 290 213 172 176 176 177 177 178 177 177 180 183 186 186 185 186 186 185 185 176 180 183 181 179 176 164 160 157 154 156 144 142 138 138 140 140 132 127